| time (UTC) | temp C | wind direction | speed KPH | gust KPH | rain 1hr cm | rain 24hr cm | rain mn cm | humidity % | barometer mb |
| 20260903194526 | 30 | 203 | 11.3 | 25.7 | 0.00 | 0.30 | 0.00 | 56 | 1007.4 |
| 20260903193021 | 31 | 113 | 11.3 | 22.5 | 0.00 | 0.30 | 0.00 | 56 | 1007.7 |
| 20260903191512 | 30 | 157 | 6.4 | 17.7 | 0.00 | 0.30 | 0.00 | 61 | 1007.9 |
| 20260903190010 | 28 | 132 | 3.2 | 17.7 | 0.00 | 0.30 | 0.00 | 64 | 1007.9 |
| 20260903184506 | 29 | 115 | 3.2 | 14.5 | 0.00 | 0.30 | 0.00 | 62 | 1008.3 |
| 20260903183001 | 27 | 116 | 4.8 | 14.5 | 0.00 | 0.30 | 0.00 | 66 | 1009.0 |
| 20260903181601 | 28 | 136 | 3.2 | 14.5 | 0.00 | 0.30 | 0.00 | 65 | 1009.0 |
| 20260903180058 | 27 | 119 | 6.4 | 14.5 | 0.00 | 0.30 | 0.00 | 68 | 1008.8 |
| 20260903174555 | 27 | 120 | 3.2 | 16.1 | 0.00 | 0.30 | 0.00 | 70 | 1008.8 |
| 20260903173057 | 28 | 150 | 8.0 | 16.1 | 0.00 | 0.30 | 0.00 | 64 | 1008.5 |
| 20260903171551 | 26 | 137 | 6.4 | 11.3 | 0.00 | 0.30 | 0.00 | 72 | 1008.7 |
| 20260903170048 | 26 | 114 | 6.4 | 12.9 | 0.00 | 0.30 | 0.00 | 70 | 1008.9 |
| 20260903164547 | 25 | 156 | 3.2 | 11.3 | 0.00 | 0.30 | 0.00 | 74 | 1008.8 |
| 20260903163039 | 25 | 119 | 6.4 | 14.5 | 0.00 | 0.30 | 0.00 | 71 | 1008.5 |
| 20260903161501 | 26 | 118 | 11.3 | 16.1 | 0.00 | 0.30 | 0.00 | 69 | 1008.4 |
| 20260903160059 | 27 | 167 | 9.7 | 14.5 | 0.00 | 0.30 | 0.30 | 68 | 1008.6 |
| 20260903154556 | 25 | 132 | 6.4 | 12.9 | 0.00 | 0.30 | 0.30 | 73 | 1008.5 |
| 20260903153055 | 25 | 178 | 3.2 | 9.7 | 0.00 | 0.30 | 0.30 | 71 | 1008.8 |
| 20260903151556 | 25 | 132 | 1.6 | 8.0 | 0.00 | 0.30 | 0.30 | 74 | 1008.7 |
| 20260903150109 | 23 | 242 | 3.2 | 9.7 | 0.00 | 0.30 | 0.30 | 80 | 1008.8 |
| 20260903144533 | 23 | 214 | 1.6 | 6.4 | 0.00 | 0.30 | 0.30 | 79 | 1008.4 |
| 20260903143028 | 23 | 116 | 4.8 | 12.9 | 0.00 | 0.30 | 0.30 | 80 | 1008.2 |
| 20260903141528 | 22 | 75 | 0.0 | 3.2 | 0.00 | 0.30 | 0.30 | 83 | 1008.0 |
| 20260903140035 | 22 | 40 | 0.0 | 6.4 | 0.03 | 0.30 | 0.30 | 84 | 1008.4 |
| 20260903134520 | 21 | 130 | 0.0 | 4.8 | 0.03 | 0.30 | 0.30 | 86 | 1008.8 |
| 20260903133021 | 21 | 232 | 0.0 | 12.9 | 0.03 | 0.30 | 0.30 | 86 | 1009.3 |
| 20260903131524 | 22 | 182 | 0.0 | 4.8 | 0.03 | 0.30 | 0.30 | 84 | 1009.3 |
| 20260903130017 | 22 | 279 | 0.0 | 9.7 | 0.00 | 0.28 | 0.28 | 84 | 1009.8 |
| 20260903124516 | 22 | 249 | 3.2 | 14.5 | 0.00 | 0.28 | 0.28 | 85 | 1009.2 |
| 20260903123020 | 22 | 207 | 1.6 | 19.3 | 0.00 | 0.28 | 0.28 | 83 | 1009.7 |
| 20260903121513 | 22 | 245 | 8.0 | 19.3 | 0.00 | 0.28 | 0.28 | 86 | 1009.2 |
| 20260903120012 | 21 | 271 | 9.7 | 20.9 | 0.03 | 0.28 | 0.28 | 88 | 1008.8 |
| 20260903114511 | 21 | 256 | 4.8 | 19.3 | 0.13 | 0.28 | 0.28 | 88 | 1008.8 |
| 20260903113011 | 21 | 232 | 1.6 | 14.5 | 0.28 | 0.28 | 0.28 | 88 | 1008.7 |
| 20260903111540 | 21 | 236 | 3.2 | 9.7 | 0.28 | 0.28 | 0.28 | 88 | 1008.5 |
| 20260903110040 | 22 | 265 | 1.6 | 11.3 | 0.25 | 0.25 | 0.25 | 85 | 1009.1 |
| 20260903104537 | 22 | 355 | 8.0 | 19.3 | 0.15 | 0.15 | 0.15 | 89 | 1008.8 |
| 20260903103037 | 21 | 283 | 0.0 | 0.0 | 0.00 | 0.00 | 0.00 | 92 | 1009.5 |
| 20260903101537 | 21 | 50 | 0.0 | 0.0 | 0.00 | 0.00 | 0.00 | 92 | 1009.0 |
| 20260903100036 | 20 | 256 | 0.0 | 0.0 | 0.00 | 0.00 | 0.00 | 93 | 1008.9 |
| 20260903094534 | 20 | 244 | 0.0 | 0.0 | 0.00 | 0.00 | 0.00 | 93 | 1008.5 |
| 20260903093032 | 20 | 240 | 0.0 | 0.0 | 0.00 | 0.00 | 0.00 | 93 | 1008.1 |
| 20260903091531 | 20 | 219 | 0.0 | 0.0 | 0.00 | 0.00 | 0.00 | 92 | 1007.8 |
| 20260903090030 | 20 | 219 | 0.0 | 0.0 | 0.00 | 0.03 | 0.00 | 93 | 1008.0 |
| 20260903084538 | 20 | 216 | 0.0 | 0.0 | 0.00 | 0.03 | 0.00 | 93 | 1008.0 |
| 20260903083022 | 20 | 236 | 0.0 | 0.0 | 0.00 | 0.03 | 0.00 | 93 | 1008.1 |
| 20260903081520 | 20 | 236 | 0.0 | 0.0 | 0.00 | 0.03 | 0.00 | 93 | 1008.0 |
| 20260903080018 | 20 | 229 | 0.0 | 0.0 | 0.00 | 0.30 | 0.00 | 92 | 1008.0 |
| 20260903074518 | 20 | 219 | 0.0 | 0.0 | 0.00 | 0.30 | 0.00 | 92 | 1008.3 |
| 20260903073016 | 20 | 219 | 0.0 | 0.0 | 0.00 | 0.30 | 0.00 | 94 | 1008.3 |
| 20260903071515 | 20 | 211 | 0.0 | 0.0 | 0.00 | 0.30 | 0.00 | 92 | 1008.2 |
| 20260903070015 | 20 | 211 | 0.0 | 0.0 | 0.00 | 1.37 | 0.00 | 92 | 1008.3 |
| 20260903064513 | 20 | 222 | 0.0 | 0.0 | 0.00 | 1.37 | 0.00 | 92 | 1008.5 |
| 20260903063010 | 20 | 222 | 0.0 | 0.0 | 0.00 | 1.37 | 0.00 | 92 | 1008.5 |
| 20260903061507 | 21 | 222 | 0.0 | 0.0 | 0.00 | 1.37 | 0.00 | 93 | 1008.6 |
| 20260903060006 | 20 | 222 | 0.0 | 0.0 | 0.00 | 1.37 | 0.00 | 92 | 1008.6 |
| 20260903054506 | 20 | 227 | 0.0 | 0.0 | 0.00 | 1.37 | 0.00 | 91 | 1008.7 |
| 20260903053002 | 21 | 227 | 0.0 | 0.0 | 0.00 | 1.37 | 0.00 | 91 | 1008.7 |
| 20260903051503 | 21 | 227 | 0.0 | 0.0 | 0.00 | 1.37 | 0.00 | 92 | 1008.8 |
| 20260903050106 | 21 | 227 | 0.0 | 0.0 | 0.00 | 1.37 | 0.00 | 91 | 1008.7 |
| 20260903044603 | 21 | 228 | 0.0 | 0.0 | 0.00 | 1.37 | 0.00 | 91 | 1008.6 |
| 20260903043109 | 21 | 228 | 0.0 | 0.0 | 0.00 | 1.37 | 0.00 | 91 | 1008.7 |
| 20260903041556 | 21 | 228 | 0.0 | 0.0 | 0.00 | 1.37 | 0.00 | 90 | 1008.8 |
| 20260903040055 | 21 | 248 | 0.0 | 0.0 | 0.00 | 1.37 | 0.00 | 90 | 1008.8 |
| 20260903034556 | 21 | 250 | 0.0 | 0.0 | 0.00 | 1.37 | 0.00 | 90 | 1008.8 |
| 20260903033048 | 22 | 252 | 0.0 | 0.0 | 0.00 | 1.37 | 0.00 | 90 | 1008.9 |
| 20260903031553 | 22 | 220 | 0.0 | 0.0 | 0.00 | 1.37 | 0.00 | 89 | 1008.9 |
| 20260903030047 | 22 | 175 | 0.0 | 0.0 | 0.00 | 1.37 | 0.00 | 89 | 1009.0 |
| 20260903024543 | 22 | 227 | 0.0 | 0.0 | 0.00 | 1.37 | 0.00 | 88 | 1008.9 |
| 20260903023039 | 22 | 248 | 0.0 | 0.0 | 0.00 | 1.37 | 0.00 | 87 | 1009.0 |
| 20260903021548 | 23 | 215 | 0.0 | 0.0 | 0.00 | 1.37 | 0.00 | 87 | 1008.7 |
| 20260903020035 | 23 | 215 | 0.0 | 0.0 | 0.00 | 1.37 | 0.00 | 85 | 1008.6 |
| 20260903014533 | 23 | 215 | 0.0 | 0.0 | 0.00 | 1.37 | 0.00 | 84 | 1008.5 |
| 20260903013100 | 24 | 215 | 0.0 | 0.0 | 0.00 | 1.37 | 0.00 | 82 | 1008.3 |
| 20260903011602 | 24 | 215 | 0.0 | 0.0 | 0.00 | 1.37 | 0.00 | 81 | 1008.3 |
| 20260903010025 | 25 | 215 | 0.0 | 0.0 | 0.00 | 1.37 | 0.00 | 78 | 1008.2 |
| 20260903004524 | 26 | 215 | 0.0 | 0.0 | 0.00 | 1.37 | 0.00 | 74 | 1008.1 |
| 20260903003051 | 27 | 160 | 0.0 | 1.6 | 0.00 | 1.37 | 0.00 | 68 | 1008.2 |
| 20260903001551 | 28 | 163 | 0.0 | 0.0 | 0.00 | 1.37 | 0.00 | 66 | 1008.1 |
| 20260903000049 | 28 | 169 | 0.0 | 0.0 | 0.00 | 1.37 | 0.00 | 63 | 1008.1 |
| 20260902234547 | 29 | 188 | 0.0 | 8.0 | 0.00 | 1.37 | 0.00 | 61 | 1008.1 |
| 20260902233046 | 30 | 121 | 0.0 | 6.4 | 0.00 | 1.37 | 0.00 | 59 | 1008.0 |
| 20260902231545 | 30 | 118 | 1.6 | 11.3 | 0.00 | 1.37 | 0.00 | 58 | 1008.1 |
| 20260902230019 | 31 | 109 | 0.0 | 6.4 | 0.00 | 1.37 | 0.00 | 57 | 1008.2 |
| 20260902224516 | 31 | 81 | 0.0 | 6.4 | 0.00 | 1.37 | 0.00 | 55 | 1008.2 |
| 20260902223044 | 31 | 113 | 4.8 | 12.9 | 0.00 | 1.37 | 0.00 | 56 | 1008.1 |
| 20260902221544 | 31 | 122 | 1.6 | 11.3 | 0.00 | 1.37 | 0.00 | 56 | 1008.2 |
| 20260902220045 | 31 | 117 | 3.2 | 11.3 | 0.00 | 1.37 | 0.00 | 56 | 1008.3 |
| 20260902214539 | 31 | 90 | 1.6 | 11.3 | 0.00 | 1.37 | 0.00 | 56 | 1008.3 |
| 20260902213037 | 31 | 97 | 4.8 | 12.9 | 0.00 | 1.37 | 0.00 | 55 | 1008.4 |
| 20260902211543 | 31 | 109 | 8.0 | 16.1 | 0.00 | 1.37 | 0.00 | 54 | 1008.4 |
| 20260902210105 | 32 | 71 | 3.2 | 11.3 | 0.00 | 1.37 | 0.00 | 52 | 1008.5 |
| 20260902204539 | 31 | 119 | 0.0 | 14.5 | 0.00 | 1.37 | 0.00 | 54 | 1008.6 |
| 20260902203033 | 31 | 66 | 4.8 | 14.5 | 0.00 | 1.37 | 0.00 | 55 | 1008.6 |
| 20260902201534 | 31 | 126 | 1.6 | 14.5 | 0.00 | 1.37 | 0.00 | 54 | 1008.7 |
| 20260902200025 | 30 | 5 | 1.6 | 8.0 | 0.00 | 1.37 | 0.00 | 58 | 1008.8 |